Flag for U.S.A. Weather past 2 weeks in Spokane, Washington, U.S.A.

Now
64 °F

Passing clouds.


Feels Like: 64 °F
Forecast: 38 / 59 °F
Wind: 12 mph from Southwest

Location: Felts Field


UV Index: 3 (Moderate)

Visibility: 10 mi


Pressure: 29.82 "Hg

Humidity: 27%

Dew point: 29 °F

Location of SpokaneLocation

Historic Weather in Spokane

°F

Spokane temperature yesterday

Maximum temperature yesterday: 56 °F (at 4:53 PM)
Minimum temperature yesterday: 40 °F (at 5:53 AM)
Average temperature yesterday: 47 °F

Past Weeks' High & Low Weather Summary

 TemperatureHumidityPressure
High71 °F (Apr 8, 3:53 PM)93% (Apr 17, 4:53 AM)30.37 "Hg (Apr 17, 4:53 AM)
Low30 °F (Apr 13, 4:53 AM)11% (Apr 14, 3:53 PM)29.74 "Hg (Apr 18, 12:53 AM)
Average49 °F53%30.01 "Hg
* Reported Apr 4 3:53 PM — Apr 19 3:53 PM, Spokane, Weather by CustomWeather, © 2014

Note: Actual official high and low records may vary slightly from our data, if they occured in-between our weather recording intervals... More about our weather records

Advertising

Historic Weather Conditions — Data for Previous 24 hours

 ConditionsComfort  
Time TempWeatherWind HumidityBarometerVisibility
3:53 PM
Apr 19
64 °FPassing clouds.12 mph27%29.82 "Hg10 mi
2:53 PM64 °FPartly sunny.13 mph27%29.83 "Hg10 mi
1:53 PM63 °FSunny.6 mph33%29.82 "Hg10 mi
12:53 PM60 °FPartly sunny.6 mph33%29.84 "Hg10 mi
11:53 AM57 °FPassing clouds.No wind36%29.86 "Hg10 mi
10:53 AM54 °FSunny.6 mph40%29.88 "Hg10 mi
9:53 AM51 °FPassing clouds.8 mph46%29.89 "Hg10 mi
8:53 AM47 °FSunny.5 mph56%29.92 "Hg10 mi
7:53 AM40 °FSunny.No wind70%29.94 "Hg10 mi
6:53 AM36 °FSunny.No wind79%29.95 "Hg10 mi
5:53 AM32 °FClear.5 mph88%29.96 "Hg10 mi
4:53 AM33 °FClear.3 mph82%29.97 "Hg10 mi
3:53 AM35 °FClear.5 mph78%29.97 "Hg10 mi
2:53 AM35 °FClear.3 mph78%29.98 "Hg10 mi
1:53 AM37 °FClear.5 mph76%29.98 "Hg10 mi
12:53 AM40 °FClear.6 mph65%29.98 "Hg10 mi
11:53 PM
Apr 18
40 °FClear.5 mph68%30.00 "Hg10 mi
10:53 PM42 °FClear.5 mph57%29.99 "Hg10 mi
9:53 PM44 °FClear.3 mph47%30.00 "Hg10 mi
8:53 PM43 °FClear.No wind53%29.99 "Hg10 mi
7:53 PM49 °FSunny.6 mph38%29.98 "Hg10 mi
6:53 PM54 °FSunny.14 mph30%29.97 "Hg10 mi
5:53 PM56 °FSunny.16 mph29%29.97 "Hg10 mi
Weather by CustomWeather, © 2014

See weather overview